Date,TemperatureHighF,TemperatureAvgF,TemperatureLowF,DewpointHighF,DewpointAvgF,DewpointLowF,HumidityHigh,HumidityAvg,HumidityLow,PressureMaxIn,PressureMinIn,WindSpeedMaxMPH,WindSpeedAvgMPH,GustSpeedMaxMPH,PrecipitationSumIn
2013-3-1,51.3,48.5,46.6,50.0,47.8,44.1,100,97,88,30.49,30.25,34,22,35,0.01
2013-3-2,55.8,50.2,46.9,50.0,47.9,45.9,100,92,78,30.49,30.30,23,10,25,0.01
2013-3-3,47.7,44.5,36.9,47.7,43.8,35.1,100,97,90,30.31,30.21,21,8,29,0.02
2013-3-4,42.4,38.0,34.0,35.2,31.5,28.2,98,78,59,30.34,30.21,29,14,31,0.02
2013-3-5,50.7,40.0,28.6,39.9,34.4,26.8,98,81,59,30.22,29.91,20,6,22,0.00
2013-3-6,46.0,40.4,36.5,41.0,38.6,28.0,99,93,51,29.91,29.60,19,8,23,0.21
2013-3-7,41.4,38.3,34.3,40.6,37.0,34.2,100,95,81,30.04,29.57,32,14,35,0.41
2013-3-8,49.1,42.7,38.1,40.5,35.2,30.7,94,75,50,30.08,30.02,26,6,28,0.00
2013-3-9,48.9,41.4,33.4,41.4,36.7,32.9,99,84,63,30.27,30.03,16,7,17,0.00
2013-3-10,52.5,45.6,37.0,42.6,35.0,21.2,97,69,30,30.53,30.27,15,4,18,0.00
2013-3-11,50.2,46.5,40.1,45.3,38.4,32.4,98,74,56,30.51,30.42,12,4,14,0.00
2013-3-12,55.8,48.9,45.0,51.1,47.3,44.8,99,94,81,30.43,30.22,14,2,15,0.00
2013-3-13,55.2,48.5,44.2,49.6,46.1,41.9,100,92,76,30.25,30.19,13,5,15,0.00
2013-3-14,62.2,52.2,45.7,51.8,47.2,43.0,93,84,65,30.25,30.10,13,4,15,0.00
2013-3-15,52.3,49.1,45.3,48.6,45.1,41.5,98,86,70,30.25,30.06,24,12,29,0.00
2013-3-16,57.4,49.9,44.2,51.4,46.8,44.1,99,90,67,30.26,30.19,18,8,24,0.00
2013-3-17,44.2,40.8,34.9,44.1,40.1,32.7,99,97,89,30.27,30.04,33,17,41,0.02
2013-3-18,42.6,37.1,32.5,36.7,33.7,32.0,99,88,74,30.36,30.26,16,8,21,0.01
2013-3-19,46.9,40.6,34.5,37.6,33.5,30.7,92,76,60,30.34,30.11,25,7,28,0.01
2013-3-20,51.8,44.5,35.4,48.4,40.4,32.7,99,86,59,30.12,29.63,42,9,42,0.18
2013-3-21,50.7,41.0,33.6,47.8,39.4,33.1,99,94,78,30.26,29.58,48,25,54,0.01
2013-3-22,40.5,35.4,32.4,38.7,33.3,31.1,99,92,71,30.39,30.26,28,16,36,0.04
2013-3-23,39.6,34.7,31.6,35.1,32.2,30.2,99,90,71,30.45,30.37,17,7,21,0.00
2013-3-24,41.9,37.3,31.8,35.2,30.6,22.5,97,78,50,30.43,30.29,16,6,17,0.00
2013-3-25,47.1,41.6,33.4,39.2,34.9,30.7,92,77,61,30.29,30.07,15,6,16,0.00
2013-3-26,49.6,44.4,37.8,41.2,38.5,31.5,98,80,67,30.07,29.96,20,6,21,0.00
2013-3-27,46.8,44.1,40.6,45.7,42.8,40.1,99,95,84,30.05,29.96,14,4,16,0.01
2013-3-28,56.3,48.2,42.6,49.1,45.1,40.8,98,89,72,30.04,29.94,15,5,22,0.02
2013-3-29,58.6,50.9,46.6,50.5,47.1,44.4,99,88,61,30.18,30.02,21,5,26,0.01
2013-3-30,60.8,53.9,47.1,52.7,49.2,46.0,99,85,69,30.22,30.15,19,7,19,0.01
2013-3-31,66.4,56.6,45.9,52.7,48.4,44.2,96,76,51,30.16,29.96,23,10,27,0.00